Left ArrowRight Arrow

41.76142, -88.44369

Hourly Observations for February 29, 2016

Temp ( °F °C ) Dew Point ( °F °C ) Humidity (%) Winds ( mph kmh ) Pressure ( in mb ) Visibility ( mi km ) Precip ( " mm )
12:52 am 00:52 Mostly Cloudy 34 1.1 28 -2.2 79 79 WNW 10 17 29.84 1010 10 16 0.00 0.00
1:05 am 01:05 Partly Cloudy 33 0.6 27 -2.8 78 78 WNW 9 15 29.88 1012 10 16 0.00 0.00
1:52 am 01:52 Clear 33 0.6 28 -2.2 82 82 W 14 22 29.86 1011 10 16 0.00 0.00
2:19 am 02:19 Mostly Cloudy 34 1.1 28 -2.2 79 79 W 14 22 29.88 1012 10 16 0.00 0.00
2:52 am 02:52 Cloudy 35 1.7 28 -2.2 76 76 W 13 20 29.87 1011 10 16 0.00 0.00
3:52 am 03:52 Cloudy 35 1.7 29 -1.7 78 78 WSW 7 11 29.86 1011 10 16 0.00 0.00
4:52 am 04:52 Cloudy 34 1.1 28 -2.2 79 79 WSW 13 20 29.88 1012 10 16 0.00 0.00
5:41 am 05:41 Partly Cloudy 32 0 27 -2.8 82 82 WSW 10 17 29.91 1013 10 16 0.00 0.00
5:52 am 05:52 Clear 32 0 27 -2.8 82 82 WSW 9 15 29.91 1013 10 16 0.00 0.00
6:52 am 06:52 Sunny 31 -0.6 27 -2.8 85 85 SSW 9 15 29.88 1012 9 14 0.00 0.00
7:52 am 07:52 Sunny 34 1.1 28 -2.2 79 79 SW 13 20 29.91 1013 8 13 0.00 0.00
8:52 am 08:52 Sunny 37 2.8 30 -1.1 76 76 SW 14 22 29.91 1013 9 14 0.00 0.00
9:52 am 09:52 Cloudy 41 5 31 -0.6 67 67 SW 16 26 29.91 1013 10 16 0.00 0.00
10:52 am 10:52 Cloudy 46 7.8 32 0 58 58 WSW 23 37 29.91 1013 10 16 0.00 0.00
11:52 am 11:52 Mostly Sunny 48 8.9 33 0.6 56 56 WSW 20 31 29.91 1013 10 16 0.00 0.00
12:52 pm 12:52 Sunny 50 10 35 1.7 57 57 WSW 22 35 29.91 1013 10 16 0.00 0.00
1:52 pm 13:52 Mostly Sunny 55 12.8 35 1.7 47 47 W 17 28 29.88 1012 10 16 0.00 0.00
2:52 pm 14:52 Sunny 53 11.7 37 2.8 55 55 WNW 17 28 29.91 1013 10 16 0.00 0.00
3:52 pm 15:52 Sunny 50 10 36 2.2 59 59 NW 14 22 29.92 1013 10 16 0.00 0.00
4:52 pm 16:52 Partly Cloudy 49 9.4 35 1.7 59 59 NNE 7 11 29.93 1014 10 16 0.00 0.00
5:52 pm 17:52 Cloudy 38 3.3 28 -2.2 68 68 NE 21 33 29.96 1015 10 16 0.00 0.00
6:52 pm 18:52 Mostly Cloudy 35 1.7 26 -3.3 70 70 ENE 21 33 29.99 1016 10 16 0.00 0.00
7:52 pm 19:52 Cloudy 34 1.1 24 -4.4 67 67 ENE 18 30 29.99 1016 10 16 0.00 0.00
8:52 pm 20:52 Cloudy with Light Rain 32 0 23 -5 69 69 ENE 18 30 30.03 1017 9 14 0.00 0.03
9:52 pm 21:52 Cloudy 31 -0.6 25 -3.9 79 79 ENE 16 26 30.02 1017 10 16 0.00 0.03
10:52 pm 22:52 Cloudy 31 -0.6 24 -4.4 76 76 ENE 16 26 29.99 1016 10 16 0.00 0.00
11:52 pm 23:52 Mostly Cloudy 30 -1.1 23 -5 75 75 ENE 22 35 29.97 1015 10 16 0.00 0.00

Powered by Vaisala Xweather